Regional Weather Roundup
Issued by NWS

Home | Current Version | Previous Version | Text Only | Print | Product List | Glossary Off
Versions: 1 2 3 4 5 6 7 8 9 10 11 12 13 14 15 16 17 18 19 20 21 22 23 24 25 26 27 28 29 30 31 32 33 34 35 36 37 38 39 40 41 42 43 44 45 46 47 48 49 50

000
ASUS43 KOAX 240502
RWRNE

WEATHER ROUNDUP FOR NEBRASKA
NATIONAL WEATHER SERVICE OMAHA NE
1200 AM CDT WED AUG 24 2016

NOTES: SATELLITE DATA IS BEING USED TO AUGMENT CLOUD COVER ABOVE
       12000 FEET.
       "FAIR" INDICATES FEW OR NO CLOUDS BELOW 12,000 FEET WITH NO
       SIGNIFICANT WEATHER AND/OR OBSTRUCTIONS TO VISIBILITY.

  * THESE STATIONS DO NOT REPORT WEATHER SUCH AS RAIN...SNOW OR FOG.

NEZ001>004-019>022-054>056-240600-
NEBRASKA PANHANDLE

CITY           SKY/WX    TMP DP  RH WIND       PRES   REMARKS
SCOTTSBLUFF    CLEAR     57  46  66 E7        30.09R
ALLIANCE       CLOUDY    48  42  80 W7        30.09R
CHADRON        CLOUDY    54  33  45 SW7       30.07R
KIMBALL        CLOUDY    59  44  57 SE6       30.13R
SIDNEY         PTCLDY    58  48  69 CALM      30.11R
$$

NEZ057>060-069>072-079>082-240600-
SOUTHWEST NEBRASKA

CITY           SKY/WX    TMP DP  RH WIND       PRES   REMARKS
NORTH PLATTE   CLEAR     59  48  67 NE3       29.99R
IMPERIAL       CLEAR     61  47  59 NE6       30.02R
LEXINGTON      CLEAR     63  57  79 NW3       29.96R
MCCOOK         CLEAR     68  51  54 N12       29.96R
OGALLALA       CLEAR     65  41  41 CALM      30.03R
$$

NEZ005>010-023>029-035>040-094-240600-
NORTH CENTRAL NEBRASKA

CITY           SKY/WX    TMP DP  RH WIND       PRES   REMARKS
VALENTINE      PTCLDY    58  41  53 N5        29.97S
AINSWORTH      CLEAR     61  49  63 NW5       29.98R
BROKEN BOW     CLEAR     64  51  62 N5        29.97R
O`NEILL        CLEAR     65  55  70 NW6       29.95R
ORD            CLEAR     65  56  72 NW8       29.93R
THEDFORD       CLEAR     60  45  56 W6        30.01R
$$

NEZ041-046>049-061>064-073>077-083>087-240600-
SOUTH CENTRAL NEBRASKA

CITY           SKY/WX    TMP DP  RH WIND       PRES   REMARKS
GRAND ISLAND   CLEAR     74  64  71 N10       29.91R
AURORA         MOCLDY    73  72  95 W3        29.90R
HASTINGS       CLEAR     74  67  78 NW9       29.90R
HEBRON         CLEAR     75  68  79 S10G18    29.85S
HOLDREGE       CLEAR     69  57  66 N8        29.93R
KEARNEY *      CLEAR     72  57  60 N7        29.92R
$$

NEZ011>018-030>034-042>045-240600-
NORTHEAST NEBRASKA

CITY           SKY/WX    TMP DP  RH WIND       PRES   REMARKS
NORFOLK        CLOUDY    69  65  86 S10       29.88S
ALBION         CLOUDY    74  59  59 N5        29.91R
BLAIR          CLOUDY    66  65  97 SW8       29.91R THUNDER
FREMONT        CLOUDY    66  65  94 S8        29.88F
TEKAMAH        CLOUDY    68  62  81 SW14      29.85R
WAYNE          CLOUDY    72  68  88 SW8       29.86R
$$

NEZ050>053-065>068-078-088>093-240600-
SOUTHEAST NEBRASKA

CITY           SKY/WX    TMP DP  RH WIND       PRES   REMARKS
LINCOLN        HVY RAIN  69  67  93 NE20G30   29.92R FOG
OMAHA EPPLEY   CLOUDY    68  64  87 SW16        N/A  THUNDER
BEATRICE       CLOUDY    73  63  70 S8        29.87R
FALLS CITY     LGT RAIN  76  74  93 SW13      29.89S
NEBRASKA CITY  CLOUDY    74  68  81 N15G26    29.93R THUNDER
PLATTSMOUTH    TSTM      67  66  97 E5        29.91F
$$

NEZ044-045-051>053-067-240600-
OMAHA AREA

CITY           SKY/WX    TMP DP  RH WIND       PRES   REMARKS
OMAHA EPPLEY   CLOUDY    68  64  87 SW16        N/A  THUNDER
BLAIR          CLOUDY    66  65  97 SW8       29.91R THUNDER
FREMONT        CLOUDY    66  65  94 S8        29.88F
MILLARD        TSTM      68  65  90 S5        29.88F
OFFUTT AFB     TSTM      66  66 100 VRB5      29.84F
PLATTSMOUTH    TSTM      67  66  97 E5        29.91F
WAHOO          RAIN      66  64  93 SE8       29.86F
$$




USA.gov is the U.S. government's official web portal to all federal, state and local government web resources and services.